CZ-6A DEB, 55864

Orbit data source: Space-Track

CZ-6A DEB, 55864 is space debris in SSO originally from a launch on Fri, 11 Nov 2022 UTC launched from the Taiyaun Space Center, China (TSC). Debris objects in space refer to the collection of defunct objects orbiting the Earth. Examples of debris include non-operational satellites, rocket bodies, and fragments generated from explosions, collisions, or faulty payload assembly.

Loading next visibility...
Identifier
55864, 2022-151ZL
Orbit
SSO
Country
Flag of CNCN / PRC
Related business
Manufacturer
SAST
Mission
Spacecraft
Bus & Motor
Unknown
Mass
Unknown
Launch date (UTC)
2022-11-11 (3 years ago)
Launch vehicle
Unknown
Launch site
Taiyaun Space Center, China (TSC)
Object type
Payload
Rocket body
Debris
Shape & HBR
Unknown shape, 1.1 m
Radar Cross Section
Small (<0.1 m²)

Expand to show TLE details & history
Last TLE update: 2 days ago

TLE from 2 days ago
0 CZ-6A DEB
1 55864U 22151ZL  25348.55494109  .00001440  00000-0  73188-3 0  9997
2 55864  98.8318 359.5009 0027295 123.5327 236.8460 14.17268724145063
Epoch: 2025-12-14T13:19Z
TLE epoch observation values (Epoch: 2025-12-14T13:19:06.910Z)
Latitude
-0.00003°
Longitude
76.25593°
Altitude
848.318 km
Speed
7.423 km/s
True Right ascension
23h 58m 00s
True Declination
0° 00' 00"
Sunlit
Object was in daylight at epoch
Visualization orbit readout
Latitude
Unknown
Longitude
Unknown
Altitude
Unknown
Speed
Unknown
Apparent Right ascension
Unknown
Apparent Declination
Unknown
Sunlit
N/A
Visualization observer readout
Local Sidereal Time
00:26:42
Azimuth
Unknown
Elevation
Unknown
Doppler factor
Unknown
Orbital elements
Apogee altitude
851.452 km
Perigee altitude
812.093 km
Semi-major axis
7,209.91 km
Eccentricity
0.00273
Inclination
98.8318°
RAAN
359.5009°
Arg. of periapsis
123.5327°
True anomaly
236.58463°
Mean anomaly
236.846°
Eccentric anomaly
236.71527°
Mean motion
3.54526 °/min
Orbital period
101.54 mins
BSTAR
0.00073188
Loading maneuver chart data...
Computing Atmospheric mass density...
Loading historical data...
Loading historical data...
Loading historical data...
Loading historical data...
Loading historical data...
Loading historical data...
Loading historical data...

Documentation

Showing up to 5 results
|